Terug naar catalogus

STARLINK-36153

ActiefCommunicatieVLEO
NORAD 66934·PAYLOAD·🇺🇸 United States

Gelanceerd Dec 7, 2025 vanaf Vandenberg Space Force Base

Loading…

Volgende Passages (komende 24 uur)

TLE

VersSource: CelesTrak SupGP

Epoch: Sep 15, 2026, 02:48 UTC

1 66934C 25286K   26258.11715278 -.00085509  00000+0 -25257-2 0  2585
2 66934  53.1591 195.0748 0001302  89.5264  83.4026 15.34441489    15

Volg STARLINK-36153 in realtime met AllMySat

Download on the App Store